Location: Newark
(3.0500°N, 36.0167°E)
Time: 03:37:41
(UTC+00:00)

Transit 2A Rocket - Pass Details

Date: 19 August 2019
Orbit: 592 x 911 km, 66.7° (Epoch: 20 September)

Event Time Altitude Azimuth Distance (km) Brightness Sun altitude
Rises 03:57:34 0° 341° (NNW) 2,823 7.9 5.0°
Reaches altitude 10° 03:59:47 10° 341° (NNW) 1,914 7.0 5.6°
Maximum altitude 04:04:03 87° 67° (ENE) 597 4.7 6.6°
Drops below altitude 10° 04:08:24 10° 159° (SSE) 1,954 7.3 7.7°
Sets 04:10:42 0° 159° (SSE) 2,887 8.1 8.2°
